• In Latvia
  • List of Countries
  • For 7 days
  • Water Temperature
  • Satellite Maps
  • Weather Map
  • Weather Widgets
  • user-avatar
    Login

    Hourly Weather Nottingham

    Today, 19 September, Wednesday

    Time Temperature Precipitation Wind Pressure Humidity
    00:00 +16°C° 0 mm 5 mps 750 mmHg 83%
    01:00 +16°C° 0 mm 5 mps 750 mmHg 85%
    02:00 +15°C° 0 mm 5 mps 750 mmHg 87%
    03:00 +15°C° 0 mm 5 mps 750 mmHg 89%
    04:00 +15°C° 0 mm 5 mps 750 mmHg 88%
    05:00 +15°C° 0 mm 6 mps 750 mmHg 87%
    06:00 +15°C° 0 mm 4 mps 749 mmHg 88%
    07:00 +16°C° 0 mm 6 mps 749 mmHg 83%
    08:00 +17°C° 0 mm 8 mps 749 mmHg 78%
    09:00 +18°C° 0 mm 10 mps 749 mmHg 73%
    10:00 +18°C° 0 mm 11 mps 748 mmHg 69%
    11:00 +19°C° 0 mm 11 mps 748 mmHg 65%
    12:00 +21°C° 0 mm 12 mps 748 mmHg 61%
    13:00 +19°C° 0.1 mm 11 mps 748 mmHg 64%
    14:00 +18°C° 0.1 mm 10 mps 749 mmHg 67%
    15:00 +17°C° 0.1 mm 10 mps 749 mmHg 70%
    16:00 +16°C° 0 mm 9 mps 750 mmHg 67%
    17:00 +16°C° 0 mm 8 mps 750 mmHg 65%
    18:00 +15°C° 0 mm 7 mps 751 mmHg 63%
    19:00 +14°C° 0 mm 7 mps 752 mmHg 63%
    20:00 +12°C° 0 mm 7 mps 752 mmHg 64%
    21:00 +13°C° 0 mm 6 mps 753 mmHg 64%
    22:00 +11°C° 0 mm 6 mps 753 mmHg 67%
    23:00 +12°C° 0 mm 5 mps 753 mmHg 69%

    Tomorrow, 20 September, Thursday

    Time Temperature Precipitation Wind Pressure Humidity
    00:00 +10°C° 0 mm 5 mps 753 mmHg 72%
    01:00 +11°C° 0.5 mm 4 mps 753 mmHg 75%
    02:00 +11°C° 0.5 mm 4 mps 753 mmHg 79%
    03:00 +11°C° 0.5 mm 3 mps 752 mmHg 83%
    04:00 +11°C° 0.4 mm 3 mps 752 mmHg 84%
    05:00 +12°C° 0.4 mm 2 mps 752 mmHg 85%
    06:00 +12°C° 0.4 mm 2 mps 752 mmHg 86%
    07:00 +12°C° 0.5 mm 1 mps 752 mmHg 86%
    08:00 +12°C° 0.5 mm 1 mps 752 mmHg 87%
    09:00 +13°C° 0.5 mm 1 mps 752 mmHg 87%
    10:00 +13°C° 0.7 mm 2 mps 751 mmHg 87%
    11:00 +13°C° 0.7 mm 3 mps 750 mmHg 87%
    12:00 +13°C° 0.7 mm 4 mps 750 mmHg 87%
    13:00 +14°C° 1.8 mm 5 mps 749 mmHg 87%
    14:00 +15°C° 1.8 mm 7 mps 748 mmHg 88%
    15:00 +16°C° 1.8 mm 8 mps 746 mmHg 88%
    16:00 +16°C° 1.2 mm 9 mps 745 mmHg 87%
    17:00 +17°C° 1.2 mm 9 mps 744 mmHg 86%
    18:00 +17°C° 1.2 mm 10 mps 743 mmHg 85%
    19:00 +17°C° 1 mm 10 mps 742 mmHg 86%
    20:00 +17°C° 1 mm 10 mps 741 mmHg 87%
    21:00 +17°C° 1 mm 10 mps 740 mmHg 87%
    22:00 +16°C° 1.5 mm 10 mps 740 mmHg 85%
    23:00 +16°C° 1.5 mm 10 mps 739 mmHg 82%

    Day after tomorrow, 21 September, Friday

    Time Temperature Precipitation Wind Pressure Humidity
    00:00 +14°C° 1.5 mm 11 mps 739 mmHg 80%
    01:00 +12°C° 0.1 mm 10 mps 740 mmHg 79%
    02:00 +9°C° 0.1 mm 10 mps 742 mmHg 78%
    03:00 +7°C° 0.1 mm 10 mps 743 mmHg 77%
    04:00 +7°C° 0 mm 9 mps 744 mmHg 76%
    05:00 +7°C° 0 mm 8 mps 745 mmHg 75%
    06:00 +6°C° 0 mm 8 mps 746 mmHg 74%
    07:00 +7°C° 0 mm 9 mps 746 mmHg 71%
    08:00 +8°C° 0 mm 10 mps 747 mmHg 67%
    09:00 +9°C° 0 mm 11 mps 747 mmHg 63%
    10:00 +9°C° 0.2 mm 11 mps 747 mmHg 64%
    11:00 +11°C° 0.2 mm 11 mps 748 mmHg 64%
    12:00 +12°C° 0.2 mm 12 mps 748 mmHg 64%
    13:00 +12°C° 0.1 mm 11 mps 749 mmHg 62%
    14:00 +12°C° 0.1 mm 10 mps 750 mmHg 59%
    15:00 +13°C° 0.1 mm 10 mps 751 mmHg 57%
    16:00 +12°C° 0 mm 8 mps 751 mmHg 61%
    17:00 +11°C° 0 mm 7 mps 752 mmHg 64%
    18:00 +10°C° 0 mm 5 mps 753 mmHg 68%
    19:00 +9°C° 0 mm 5 mps 753 mmHg 70%
    20:00 +9°C° 0 mm 5 mps 754 mmHg 73%
    21:00 +8°C° 0 mm 4 mps 755 mmHg 75%
    22:00 +8°C° 0 mm 4 mps 755 mmHg 76%
    23:00 +8°C° 0 mm 4 mps 756 mmHg 77%

    22 September, Saturday

    Time Temperature Precipitation Wind Pressure Humidity
    00:00 +7°C° 0 mm 4 mps 756 mmHg 78%
    01:00 +7°C° 0 mm 4 mps 756 mmHg 78%
    02:00 +7°C° 0 mm 4 mps 757 mmHg 78%
    03:00 +7°C° 0 mm 4 mps 757 mmHg 78%
    04:00 +6°C° 0 mm 4 mps 757 mmHg 78%
    05:00 +6°C° 0 mm 4 mps 757 mmHg 79%
    06:00 +6°C° 0 mm 4 mps 758 mmHg 80%
    07:00 +7°C° 0 mm 4 mps 758 mmHg 75%
    08:00 +8°C° 0 mm 5 mps 758 mmHg 71%
    09:00 +10°C° 0 mm 5 mps 759 mmHg 66%
    10:00 +12°C° 0 mm 5 mps 759 mmHg 63%
    11:00 +12°C° 0 mm 5 mps 759 mmHg 61%
    12:00 +13°C° 0 mm 5 mps 759 mmHg 58%
    13:00 +13°C° 0 mm 5 mps 759 mmHg 57%
    14:00 +13°C° 0 mm 4 mps 759 mmHg 57%
    15:00 +14°C° 0 mm 4 mps 758 mmHg 57%
    16:00 +13°C° 0 mm 3 mps 758 mmHg 60%
    17:00 +13°C° 0 mm 2 mps 758 mmHg 64%
    18:00 +12°C° 0 mm 1 mps 757 mmHg 67%
    19:00 +12°C° 0 mm 1 mps 757 mmHg 68%
    20:00 +12°C° 0 mm 1 mps 757 mmHg 68%
    21:00 +11°C° 0 mm 1 mps 756 mmHg 69%
    22:00 +10°C° 0.7 mm 2 mps 755 mmHg 74%
    23:00 +10°C° 0.7 mm 2 mps 754 mmHg 79%

    23 September, Sunday

    Time Temperature Precipitation Wind Pressure Humidity
    00:00 +9°C° 0.7 mm 3 mps 753 mmHg 84%
    01:00 +8°C° 2.4 mm 5 mps 751 mmHg 86%
    02:00 +8°C° 2.4 mm 7 mps 749 mmHg 88%
    03:00 +6°C° 2.4 mm 9 mps 747 mmHg 90%
    04:00 +6°C° 8.2 mm 10 mps 744 mmHg 90%
    05:00 +6°C° 8.2 mm 10 mps 742 mmHg 91%
    06:00 +6°C° 8.2 mm 11 mps 739 mmHg 92%
    07:00 +7°C° 2.4 mm 11 mps 737 mmHg 91%
    08:00 +8°C° 2.4 mm 11 mps 736 mmHg 90%
    09:00 +9°C° 2.4 mm 11 mps 734 mmHg 89%
    10:00 +9°C° 1.5 mm 10 mps 733 mmHg 89%
    11:00 +11°C° 1.5 mm 10 mps 732 mmHg 89%
    12:00 +11°C° 1.5 mm 10 mps 732 mmHg 88%
    13:00 +9°C° 2.6 mm 12 mps 733 mmHg 87%
    14:00 +8°C° 2.6 mm 14 mps 735 mmHg 85%
    15:00 +7°C° 2.6 mm 17 mps 736 mmHg 84%
    16:00 +6°C° 1.1 mm 16 mps 739 mmHg 81%
    17:00 +6°C° 1.1 mm 15 mps 742 mmHg 78%
    18:00 +6°C° 1.1 mm 15 mps 745 mmHg 75%
    19:00 +7°C° 0.1 mm 13 mps 748 mmHg 74%
    20:00 +7°C° 0.1 mm 12 mps 750 mmHg 74%
    21:00 +6°C° 0.1 mm 10 mps 753 mmHg 73%
    22:00 +6°C° 0 mm 9 mps 754 mmHg 72%
    23:00 +6°C° 0 mm 9 mps 756 mmHg 72%

    24 September, Monday

    Time Temperature Precipitation Wind Pressure Humidity
    00:00 +5°C° 0 mm 9 mps 757 mmHg 72%
    01:00 +5°C° 0 mm 8 mps 758 mmHg 72%
    02:00 +4°C° 0 mm 8 mps 759 mmHg 72%
    03:00 +4°C° 0 mm 7 mps 760 mmHg 72%
    04:00 +3°C° 0 mm 7 mps 761 mmHg 72%
    05:00 +3°C° 0 mm 6 mps 762 mmHg 71%
    06:00 +3°C° 0 mm 6 mps 763 mmHg 71%
    07:00 +4°C° 0 mm 6 mps 764 mmHg 67%
    08:00 +5°C° 0 mm 7 mps 764 mmHg 64%
    09:00 +6°C° 0 mm 7 mps 765 mmHg 60%
    10:00 +8°C° 0 mm 7 mps 765 mmHg 57%
    11:00 +9°C° 0 mm 7 mps 766 mmHg 54%
    12:00 +10°C° 0 mm 6 mps 766 mmHg 52%
    13:00 +11°C° 0 mm 6 mps 767 mmHg 53%
    14:00 +11°C° 0 mm 6 mps 767 mmHg 55%
    15:00 +11°C° 0 mm 6 mps 767 mmHg 57%
    16:00 +10°C° 0 mm 5 mps 767 mmHg 61%
    17:00 +9°C° 0 mm 5 mps 768 mmHg 66%
    18:00 +8°C° 0 mm 4 mps 768 mmHg 70%
    19:00 +9°C° 0 mm 3 mps 769 mmHg 73%
    20:00 +8°C° 0 mm 3 mps 769 mmHg 75%
    21:00 +8°C° 0 mm 3 mps 770 mmHg 78%
    22:00 +7°C° 0 mm 3 mps 770 mmHg 80%
    23:00 +7°C° 0 mm 3 mps 770 mmHg 82%
    Show more